Regional Weather Roundup
Issued by NWS

Home | Current Version | Previous Version | Text Only | Print | Product List | Glossary Off
Versions: 1 2 3 4 5 6 7 8 9 10 11 12 13 14 15 16 17 18 19 20 21 22 23 24 25 26 27 28 29 30 31 32 33 34 35 36 37 38 39 40 41 42 43 44 45 46 47 48 49 50

000
ASUS45 KSLC 040910
RWRUT

UTAH REGIONAL WEATHER ROUNDUP
NATIONAL WEATHER SERVICE SALT LAKE CITY UT
300 AM MDT WED MAY 04 2016

UTZ001>011-023>025-041000-

NORTHERN UTAH

CITY           SKY/WX    TMP DP  RH WIND       PRES   REMARKS
BRIGHAM CITY   CLEAR     49  40  69 W3        30.15F
HILL AFB       CLEAR     53  35  49 E13       30.16S
LOGAN          CLEAR     44  38  79 CALM      30.17F
OGDEN          CLEAR     54  36  50 S13       30.15S
PROVO AIRPORT  CLEAR     48  34  57 NE3       30.17F
SALT LAKE CITY CLEAR     55  37  50 S10       30.14F
VERNAL         CLEAR     47  28  47 W6        30.23S
WENDOVER       CLEAR     52  37  58 W5        30.14S
HEBER CITY     CLEAR     34  30  86 CALM      30.23S

$$

UTZ012>022-026-027-041000-

SOUTHERN/CENTRAL UTAH

CITY           SKY/WX    TMP DP  RH WIND       PRES   REMARKS
BLANDING       CLEAR     48  32  53 NE10      30.31S
BRYCE CANYON   CLEAR     28  25  88 W6        30.31F WCI  22
CEDAR CITY     PTCLDY    53  28  38 VRB3      30.16F
DELTA          CLEAR     50  36  57 S6        30.15S
HANKSVILLE     CLEAR     45  36  70 CALM      30.20S
MILFORD        CLEAR     42  32  67 NW7       30.15F
MOAB/CYNLANDS  CLEAR     51  34  52 CALM      30.16F
PRICE          CLEAR     47  27  45 N7        30.23F
ST GEORGE      SUNNY     66  34  30 NE3       30.07S
KANAB          PTCLDY    52  34  50 N12       30.20F

$$

REGIONAL REPORTS     COLORADO/ARIZONA

CITY           SKY/WX    TMP DP  RH WIND       PRES   REMARKS
CRAIG, CO      CLEAR     33  29  85 S3        30.30S
GRAND JUNCTION CLEAR     49  33  54 SE6       30.20S
RIFLE          CLEAR     43  32  65 CALM      30.27S
MONTROSE       CLEAR     47  29  49 SE9       30.28S
CORTEZ         CLEAR     36  29  75 E5        30.27F WCI  32
PAGE, AZ       PTCLDY    57  32  38 NW3       30.13F
GRAND CANYON   MOCLDY    50  29  44 E9        30.24F
KINGMAN        CLEAR     63  34  33 SE15      30.01F
FLAGSTAFF      PTCLDY    37  30  75 E7        30.25F WCI  32

$$

REGIONAL REPORTS    NEVADA/IDAHO/WYOMING

CITY           SKY/WX    TMP DP  RH WIND       PRES   REMARKS
LAS VEGAS, NV  PTCLDY    69  40  34 S6        29.92S
ELY            CLOUDY    44  32  62 SE5       30.20S
ELKO           CLOUDY    52  37  56 E6        30.11F
POCATELLO, ID  CLEAR     41  37  86 N8        30.17S
BURLEY         PTCLDY    51  33  50 SE7       30.10F
EVANSTON, WY   CLOUDY    45  28  51 SE7       30.29S
ROCK SPRINGS   CLOUDY    45  26  47 E3        30.28F
KEMMERER         N/A     37  28  70 NW13      30.30F WCI  29

$$



USA.gov is the U.S. government's official web portal to all federal, state and local government web resources and services.